TimeCST,TemperatureF,Dew PointF,Humidity,Sea Level PressureIn,VisibilityMPH,Wind Direction,Wind SpeedMPH,Gust SpeedMPH,PrecipitationIn,Events,Conditions,WindDirDegrees,DateUTC
12:15 AM,39.2,26.6,61,29.78,10.0,WNW,18.4,28.8,N/A,,Partly Cloudy,290,2012-12-06 06:15:00
12:35 AM,39.2,26.6,61,29.78,10.0,WNW,20.7,31.1,N/A,,Clear,290,2012-12-06 06:35:00
12:55 AM,37.4,28.4,70,29.78,10.0,WNW,21.9,26.5,N/A,,Clear,290,2012-12-06 06:55:00
1:15 AM,37.4,28.4,70,29.79,10.0,West,19.6,24.2,N/A,,Clear,280,2012-12-06 07:15:00
1:35 AM,35.6,26.6,70,29.80,10.0,West,18.4,26.5,N/A,,Clear,280,2012-12-06 07:35:00
1:55 AM,35.6,28.4,75,29.80,10.0,WNW,18.4,23.0,N/A,,Clear,290,2012-12-06 07:55:00
2:15 AM,35.6,28.4,75,29.80,10.0,West,16.1,-,N/A,,Clear,280,2012-12-06 08:15:00
2:35 AM,33.8,28.4,81,29.81,10.0,WNW,15.0,20.7,N/A,,Clear,290,2012-12-06 08:35:00
2:55 AM,32.0,28.4,87,29.82,10.0,West,13.8,-,N/A,,Partly Cloudy,280,2012-12-06 08:55:00
3:15 AM,32.0,28.4,87,29.84,10.0,West,15.0,-,N/A,,Mostly Cloudy,280,2012-12-06 09:15:00
3:35 AM,32.0,28.4,87,29.85,10.0,WNW,16.1,-,N/A,,Overcast,290,2012-12-06 09:35:00
3:55 AM,33.8,28.4,81,29.86,10.0,West,12.7,-,N/A,,Overcast,280,2012-12-06 09:55:00
4:15 AM,35.6,30.2,81,29.87,10.0,West,13.8,-,N/A,,Overcast,280,2012-12-06 10:15:00
4:35 AM,35.6,30.2,81,29.87,10.0,WNW,12.7,-,N/A,,Overcast,290,2012-12-06 10:35:00
4:55 AM,35.6,30.2,81,29.87,10.0,West,12.7,17.3,N/A,,Overcast,270,2012-12-06 10:55:00
5:15 AM,33.8,28.4,81,29.88,10.0,West,11.5,-,N/A,,Overcast,280,2012-12-06 11:15:00
5:35 AM,33.8,28.4,81,29.89,10.0,WNW,12.7,-,N/A,,Overcast,300,2012-12-06 11:35:00
5:55 AM,32.0,28.4,87,29.89,10.0,West,11.5,-,N/A,,Mostly Cloudy,280,2012-12-06 11:55:00
6:15 AM,32.0,28.4,87,29.90,10.0,WNW,12.7,-,N/A,,Scattered Clouds,290,2012-12-06 12:15:00
6:35 AM,32.0,28.4,87,29.91,10.0,WNW,12.7,23.0,N/A,,Mostly Cloudy,300,2012-12-06 12:35:00
6:55 AM,32.0,28.4,87,29.91,10.0,WNW,8.1,-,N/A,,Mostly Cloudy,300,2012-12-06 12:55:00
7:15 AM,30.2,28.4,93,29.92,10.0,WNW,8.1,-,N/A,,Scattered Clouds,300,2012-12-06 13:15:00
7:55 AM,28.4,28.4,100,29.93,10.0,WNW,8.1,-,N/A,,Clear,290,2012-12-06 13:55:00
8:15 AM,28.4,28.4,100,29.93,10.0,WNW,5.8,-,N/A,,Clear,300,2012-12-06 14:15:00
8:35 AM,26.6,26.6,100,29.94,10.0,West,8.1,-,N/A,,Clear,280,2012-12-06 14:35:00
8:55 AM,26.6,26.6,100,29.95,10.0,West,9.2,-,N/A,,Clear,270,2012-12-06 14:55:00
9:15 AM,30.2,28.4,93,29.96,10.0,WNW,10.4,-,N/A,,Clear,290,2012-12-06 15:15:00
9:35 AM,30.2,28.4,93,29.96,10.0,NW,9.2,-,N/A,,Clear,310,2012-12-06 15:35:00
9:55 AM,32.0,28.4,87,29.97,10.0,NW,8.1,-,N/A,,Scattered Clouds,310,2012-12-06 15:55:00
10:15 AM,32.0,28.4,87,29.98,10.0,NW,11.5,-,N/A,,Overcast,310,2012-12-06 16:15:00
10:35 AM,32.0,28.4,87,29.98,10.0,NW,15.0,20.7,N/A,,Overcast,310,2012-12-06 16:35:00
10:55 AM,32.0,26.6,80,30.00,10.0,NW,15.0,20.7,N/A,,Overcast,320,2012-12-06 16:55:00
11:15 AM,32.0,26.6,80,30.00,10.0,NW,13.8,-,N/A,,Overcast,320,2012-12-06 17:15:00
11:35 AM,32.0,26.6,80,29.99,10.0,NW,15.0,25.3,N/A,,Overcast,310,2012-12-06 17:35:00
11:55 AM,32.0,26.6,80,29.98,10.0,NW,13.8,-,N/A,,Mostly Cloudy,320,2012-12-06 17:55:00
12:15 PM,32.0,26.6,80,29.98,10.0,WNW,12.7,-,N/A,,Scattered Clouds,300,2012-12-06 18:15:00
12:35 PM,32.0,26.6,80,29.97,10.0,WNW,10.4,-,N/A,,Partly Cloudy,290,2012-12-06 18:35:00
12:55 PM,33.8,24.8,70,29.97,10.0,WNW,11.5,-,N/A,,Clear,300,2012-12-06 18:55:00
1:15 PM,35.6,26.6,70,29.96,10.0,WNW,12.7,-,N/A,,Clear,290,2012-12-06 19:15:00
1:35 PM,35.6,24.8,65,29.96,10.0,West,12.7,-,N/A,,Clear,280,2012-12-06 19:35:00
1:55 PM,37.4,23.0,56,29.96,10.0,WNW,10.4,-,N/A,,Clear,290,2012-12-06 19:55:00
2:15 PM,39.2,23.0,52,29.96,10.0,West,12.7,-,N/A,,Clear,280,2012-12-06 20:15:00
2:35 PM,39.2,19.4,45,29.95,10.0,WNW,9.2,-,N/A,,Clear,300,2012-12-06 20:35:00
2:55 PM,39.2,19.4,45,29.95,10.0,WNW,15.0,-,N/A,,Clear,290,2012-12-06 20:55:00
3:15 PM,37.4,19.4,48,29.95,10.0,West,13.8,-,N/A,,Clear,280,2012-12-06 21:15:00
3:35 PM,37.4,17.6,45,29.95,10.0,WNW,11.5,-,N/A,,Clear,290,2012-12-06 21:35:00
3:55 PM,37.4,19.4,48,29.96,10.0,West,12.7,-,N/A,,Clear,280,2012-12-06 21:55:00
4:15 PM,35.6,19.4,52,29.96,10.0,West,11.5,-,N/A,,Clear,280,2012-12-06 22:15:00
4:35 PM,32.0,17.6,55,29.96,10.0,WNW,6.9,-,N/A,,Clear,290,2012-12-06 22:35:00
4:55 PM,28.4,17.6,64,29.97,10.0,West,6.9,-,N/A,,Clear,270,2012-12-06 22:55:00
5:15 PM,32.0,17.6,55,29.96,10.0,WNW,5.8,-,N/A,,Clear,290,2012-12-06 23:15:00
5:35 PM,28.4,17.6,64,29.96,10.0,West,4.6,-,N/A,,Clear,270,2012-12-06 23:35:00
5:55 PM,26.6,17.6,69,29.95,10.0,West,6.9,-,N/A,,Clear,260,2012-12-06 23:55:00
6:15 PM,26.6,17.6,69,29.95,10.0,West,8.1,-,N/A,,Clear,280,2012-12-07 00:15:00
6:35 PM,24.8,17.6,74,29.95,10.0,West,6.9,-,N/A,,Clear,280,2012-12-07 00:35:00
6:55 PM,26.6,17.6,69,29.95,10.0,West,4.6,-,N/A,,Clear,260,2012-12-07 00:55:00
7:15 PM,26.6,17.6,69,29.95,10.0,WSW,4.6,-,N/A,,Clear,250,2012-12-07 01:15:00
7:35 PM,24.8,17.6,74,29.95,10.0,SW,3.5,-,N/A,,Clear,230,2012-12-07 01:35:00
7:55 PM,28.4,17.6,64,29.95,10.0,Calm,Calm,-,N/A,,Scattered Clouds,0,2012-12-07 01:55:00
8:35 PM,28.4,17.6,64,29.95,10.0,SSW,3.5,-,N/A,,Clear,210,2012-12-07 02:35:00
8:55 PM,26.6,19.4,74,29.94,10.0,SW,4.6,-,N/A,,Partly Cloudy,220,2012-12-07 02:55:00
9:15 PM,28.4,19.4,69,29.95,10.0,SW,4.6,-,N/A,,Mostly Cloudy,220,2012-12-07 03:15:00
9:35 PM,26.6,19.4,74,29.95,10.0,SW,3.5,-,N/A,,Overcast,230,2012-12-07 03:35:00
9:55 PM,26.6,17.6,69,29.94,10.0,SSW,3.5,-,N/A,,Overcast,210,2012-12-07 03:55:00
10:15 PM,26.6,19.4,74,29.94,10.0,South,6.9,-,N/A,,Mostly Cloudy,170,2012-12-07 04:15:00
10:35 PM,26.6,19.4,74,29.94,10.0,South,6.9,-,N/A,,Mostly Cloudy,190,2012-12-07 04:35:00
10:55 PM,26.6,19.4,74,29.94,10.0,South,5.8,-,N/A,,Overcast,170,2012-12-07 04:55:00
11:15 PM,26.6,17.6,69,29.93,10.0,SSE,3.5,-,N/A,,Overcast,150,2012-12-07 05:15:00
11:35 PM,24.8,19.4,80,29.93,10.0,ENE,4.6,-,N/A,,Overcast,60,2012-12-07 05:35:00
11:55 PM,26.6,19.4,74,29.93,10.0,Calm,Calm,-,N/A,,Overcast,0,2012-12-07 05:55:00